Location: Bay Harbour
(38.2612°N, 75.2555°W)
Time: 17:30:00
(UTC+00:00)

Meteor 2-15 - Pass Details

Date: 29 October 2020
Orbit: 935 x 956 km, 82.5° (Epoch: 22 November)

Event Time Altitude Azimuth Distance (km) Brightness Sun altitude
Rises 22:54:33 0° 173° (S) 3,619 7.5 -10.4°
Reaches altitude 10° 22:57:04 10° 170° (S) 2,676 6.8 -10.9°
Maximum altitude 23:03:03 58° 93° (E) 1,109 4.5 -12.1°
Drops below altitude 10° 23:09:03 10° 16° (NNE) 2,684 6.6 -13.2°
Sets 23:11:35 0° 12° (NNE) 3,630 7.3 -13.7°
